DO3HUM-5 Weather Reports


time (UTC)temp
C
wind
direction
speed
KPH
gust
KPH
rain 1hr
cm
rain 24hr
cm
rain mn
cm
humidity
%
barometer
mb
20190820072109 20 90 0.0 3.2 0.00 0.00 0.00 55 1017.2
20190820071106 19 0.0 1.6 0.00 0.00 0.00 60 1017.1
20190820070105 19 270 0.0 3.2 0.00 0.00 0.00 61 1017.1
20190820065059 19 293 1.6 3.2 0.00 0.00 0.00 59 1016.9
20190820064056 19 270 0.0 4.8 0.00 0.00 0.00 59 1016.9
20190820063052 19 266 0.0 3.2 0.00 0.00 0.00 61 1016.7
20190820062114 18 0.0 0.0 0.00 0.00 0.00 64 1016.7
20190820061045 17 0.0 0.0 0.00 0.00 0.00 68 1016.7
20190820060040 16 0.0 0.0 0.00 0.00 0.00 70 1016.5
20190820055037 15 0.0 0.0 0.00 0.00 0.00 73 1016.5
20190820054033 15 0.0 1.6 0.00 0.00 0.00 76 1016.6
20190820053100 15 0.0 0.0 0.00 0.00 0.00 80 1016.5
20190820052056 13 0.0 0.0 0.00 0.00 0.00 82 1016.4
20190820051051 13 0.0 0.0 0.00 0.00 0.00 84 1016.5
20190820050048 12 247 0.0 3.2 0.00 0.00 0.00 84 1016.4
20190820045045 12 0.0 1.6 0.00 0.00 0.00 84 1016.3
20190820044041 13 270 0.0 4.8 0.00 0.00 0.00 84 1016.2
20190820043037 13 270 0.0 4.8 0.00 0.00 0.00 83 1016.1
20190820042034 13 0.0 0.0 0.00 0.00 0.00 83 1015.8
20190820041031 13 0.0 0.0 0.00 0.00 0.00 83 1015.9
20190820040027 13 0.0 0.0 0.00 0.00 0.00 83 1015.8
20190820035024 13 0.0 0.0 0.00 0.00 0.00 83 1015.9
20190820034115 13 0.0 0.0 0.00 0.00 0.00 84 1015.9
20190820033112 13 0.0 0.0 0.00 0.00 0.00 84 1015.9
20190820032108 13 0.0 0.0 0.00 0.00 0.00 84 1015.9
20190820031105 13 0.0 1.6 0.00 0.00 0.00 83 1015.8
20190820030103 13 0.0 0.0 0.00 0.00 0.00 83 1015.7
20190820025058 13 0.0 0.0 0.00 0.00 0.00 83 1015.6
20190820024055 13 0.0 0.0 0.00 0.00 0.00 82 1015.6
20190820023052 13 0.0 0.0 0.00 0.00 0.00 82 1015.5
20190820022048 13 0.0 0.0 0.00 0.00 0.00 82 1015.6
20190820021045 13 0.0 0.0 0.00 0.00 0.00 81 1015.5
20190820020042 14 0.0 0.0 0.00 0.00 0.00 81 1015.6
20190820015038 14 0.0 0.0 0.00 0.00 0.00 80 1015.6
20190820014035 14 0.0 0.0 0.00 0.00 0.00 77 1015.7
20190820013031 15 0.0 0.0 0.00 0.00 0.00 76 1015.6
20190820012028 15 0.0 0.0 0.00 0.00 0.00 76 1015.8
20190820011024 15 0.0 0.0 0.00 0.00 0.00 75 1015.7
20190820010115 15 0.0 0.0 0.00 0.00 0.00 75 1015.7
20190820005111 15 0.0 0.0 0.00 0.00 0.00 75 1015.6
20190820004108 16 0.0 0.0 0.00 0.00 0.00 73 1015.7
20190820003105 16 0.0 0.0 0.00 0.00 0.00 73 1015.7
20190820002103 16 0.0 0.0 0.00 0.00 0.00 73 1015.7
20190820001058 16 0.0 0.0 0.00 0.00 0.00 73 1015.6
20190820000053 16 0.0 0.0 0.00 0.00 0.00 73 1015.6
20190819235050 16 0.0 0.0 0.00 0.00 0.00 73 1015.7
20190819234046 16 0.0 0.0 0.00 0.00 0.00 74 1015.5
20190819233042 16 0.0 0.0 0.00 0.00 0.00 73 1015.6
20190819232039 16 0.0 0.0 0.00 0.00 0.00 72 1015.5
20190819231036 16 0.0 0.0 0.00 0.00 0.00 71 1015.5
20190819230032 16 0.0 0.0 0.00 0.00 0.00 70 1015.5
20190819225026 16 0.0 0.0 0.00 0.00 0.00 70 1015.5
20190819224016 16 0.0 0.0 0.00 0.00 0.00 70 1015.5
20190819223112 16 0.0 0.0 0.00 0.00 0.00 69 1015.4
20190819222109 16 0.0 0.0 0.00 0.00 0.00 68 1015.2
20190819221106 17 0.0 0.0 0.00 0.00 0.00 68 1015.2
20190819220103 17 0.0 0.0 0.00 0.00 0.00 67 1015.1
20190819215058 17 0.0 0.0 0.00 0.00 0.00 66 1015.0
20190819214054 17 0.0 0.0 0.00 0.00 0.00 63 1015.0
20190819213051 17 0.0 0.0 0.00 0.00 0.00 60 1015.0
20190819212047 18 0.0 0.0 0.00 0.00 0.00 58 1014.9
20190819211043 18 0.0 0.0 0.00 0.00 0.00 60 1014.9
20190819210039 18 0.0 0.0 0.00 0.00 0.00 56 1014.8
20190819205036 18 0.0 0.0 0.00 0.00 0.00 55 1014.6
20190819204032 18 0.0 0.0 0.00 0.00 0.00 55 1014.7
20190819203028 18 0.0 0.0 0.00 0.00 0.00 55 1014.6
20190819202024 19 0.0 0.0 0.00 0.00 0.00 54 1014.7
20190819201116 20 0.0 0.0 0.00 0.00 0.00 51 1014.6
20190819200112 20 0.0 0.0 0.00 0.00 0.00 50 1014.5
20190819195108 20 0.0 0.0 0.00 0.00 0.00 49 1014.4
20190819194105 20 0.0 0.0 0.00 0.00 0.00 47 1014.4
20190819193102 21 0.0 0.0 0.00 0.00 0.00 45 1014.3
20190819192045 21 0.0 0.0 0.00 0.00 0.00 44 1014.2
20190819191042 21 0.0 0.0 0.00 0.00 0.00 43 1014.3
20190819190038 21 0.0 0.0 0.00 0.00 0.00 42 1014.0
20190819185035 21 0.0 0.0 0.00 0.00 0.00 40 1014.0
20190819184032 22 0.0 0.0 0.00 0.00 0.00 39 1013.9
20190819183028 22 0.0 0.0 0.00 0.00 0.00 38 1013.8
20190819182025 22 0.0 0.0 0.00 0.00 0.00 37 1013.7
20190819181016 23 0.0 0.0 0.00 0.00 0.00 36 1013.6
20190819180113 23 0.0 0.0 0.00 0.00 0.00 36 1013.6
20190819175108 23 0.0 0.0 0.00 0.00 0.00 35 1013.5
20190819173901 23 0.0 1.6 0.00 0.00 0.00 34 1013.4
20190819173035 24 270 0.0 1.6 0.00 0.00 0.00 34 1013.4
20190819172031 24 0.0 0.0 0.00 0.00 0.00 33 1013.3
20190819171057 24 270 0.0 1.6 0.00 0.00 0.00 32 1013.3
20190819170054 25 275 0.0 4.8 0.00 0.00 0.00 31 1013.1
20190819165051 25 268 0.0 8.0 0.00 0.00 0.00 30 1013.1
20190819164047 25 252 1.6 6.4 0.00 0.00 0.00 31 1012.9
20190819163044 25 256 0.0 4.8 0.00 0.00 0.00 31 1012.8
20190819162040 25 272 1.6 4.8 0.00 0.00 0.00 30 1012.7
20190819161037 25 307 3.2 9.7 0.00 0.00 0.00 28 1012.7
20190819160035 26 255 1.6 9.7 0.00 0.00 0.00 28 1012.7
20190819155059 26 255 1.6 6.4 0.00 0.00 0.00 29 1012.6
20190819154056 26 257 1.6 6.4 0.00 0.00 0.00 29 1012.6
20190819153053 26 274 3.2 9.7 0.00 0.00 0.00 27 1012.6
20190819152049 26 258 3.2 8.0 0.00 0.00 0.00 27 1012.6
20190819151046 26 261 4.8 9.7 0.00 0.00 0.00 29 1012.6
20190819150042 26 271 9.7 17.7 0.00 0.00 0.00 28 1012.6
20190819145039 26 252 3.2 6.4 0.00 0.00 0.00 29 1012.5
20190819144035 26 287 4.8 14.5 0.00 0.00 0.00 27 1012.5
20190819143032 26 330 1.6 6.4 0.00 0.00 0.00 28 1012.5
20190819142028 26 279 4.8 16.1 0.00 0.00 0.00 29 1012.4
20190819141025 26 285 4.8 9.7 0.00 0.00 0.00 29 1012.6
20190819140020 26 270 1.6 9.7 0.00 0.00 0.00 30 1012.5
20190819135016 26 263 3.2 8.0 0.00 0.00 0.00 31 1012.5
20190819134113 26 262 3.2 9.7 0.00 0.00 0.00 30 1012.5
20190819133109 26 277 3.2 9.7 0.00 0.00 0.00 30 1012.4
20190819132107 26 271 4.8 9.7 0.00 0.00 0.00 28 1012.3
20190819131103 27 281 3.2 11.3 0.00 0.00 0.00 29 1012.3
20190819130059 28 269 3.2 9.7 0.00 0.00 0.00 30 1012.2
20190819125055 28 239 4.8 9.7 0.00 0.00 0.00 30 1012.2
20190819124052 28 247 3.2 11.3 0.00 0.00 0.00 31 1012.2
20190819123048 27 235 4.8 14.5 0.00 0.00 0.00 32 1012.2
20190819122045 27 260 6.4 11.3 0.00 0.00 0.00 29 1012.1
20190819121041 27 278 6.4 12.9 0.00 0.00 0.00 29 1012.0
20190819120036 27 290 6.4 14.5 0.00 0.00 0.00 29 1012.1
20190819115033 27 269 8.0 19.3 0.00 0.00 0.00 29 1012.0
20190819114030 27 221 6.4 14.5 0.00 0.00 0.00 30 1012.0
20190819113026 27 255 4.8 11.3 0.00 0.00 0.00 31 1012.1
20190819112022 26 259 4.8 9.7 0.00 0.00 0.00 31 1011.9
20190819111019 27 246 6.4 14.5 0.00 0.00 0.00 31 1012.0
20190819110116 27 293 4.8 11.3 0.00 0.00 0.00 30 1012.0
20190819105112 27 259 6.4 14.5 0.00 0.00 0.00 30 1011.9
20190819104108 27 278 6.4 14.5 0.00 0.00 0.00 32 1012.0
20190819103105 26 251 4.8 8.0 0.00 0.00 0.00 35 1011.9
20190819102101 26 285 9.7 17.7 0.00 0.00 0.00 34 1011.8
20190819101058 27 270 3.2 9.7 0.00 0.00 0.00 38 1011.7
20190819100054 26 270 3.2 9.7 0.00 0.00 0.00 38 1011.8
20190819095050 27 281 3.2 14.5 0.00 0.00 0.00 40 1011.7
20190819094047 26 257 1.6 6.4 0.00 0.00 0.00 41 1011.7
20190819093042 25 273 3.2 8.0 0.00 0.00 0.00 42 1011.7
20190819092038 26 278 3.2 12.9 0.00 0.00 0.00 42 1011.6
20190819091034 25 229 3.2 8.0 0.00 0.00 0.00 42 1011.6
20190819090031 25 277 3.2 9.7 0.00 0.00 0.00 44 1011.6
20190819085027 24 261 1.6 8.0 0.00 0.00 0.00 50 1011.6
20190819084022 23 277 3.2 8.0 0.00 0.00 0.00 54 1011.6
20190819083018 22 288 3.2 4.8 0.00 0.00 0.00 57 1011.6
20190819082115 22 289 3.2 8.0 0.00 0.00 0.00 57 1011.3
20190819081111 22 284 3.2 6.4 0.00 0.00 0.00 61 1011.2
20190819080109 22 287 1.6 8.0 0.00 0.00 0.00 66 1011.1
20190819075105 21 270 0.0 4.8 0.00 0.00 0.00 71 1011.2
20190819074101 20 261 1.6 4.8 0.00 0.00 0.00 75 1011.1
20190819073058 20 260 1.6 6.4 0.00 0.00 0.00 79 1011.0